AirNav   ProFlight Series 2 Aviation Headset
 
 1042 users online  

8PN5 Helfrick Heliport
Elysburg, Pennsylvania, USA

GOING TO ELYSBURG?


FAA INFORMATION EFFECTIVE 18 JUNE 2020

Location

FAA Identifier: 8PN5
Lat/Long: 40-50-00.3090N 076-32-58.8430W
40-50.005150N 076-32.980717W
40.8334192,-76.5496786
(estimated)
Elevation: 1000 ft. / 305 m (estimated)
Variation: 11W (1985)
From city: 2 miles SE of ELYSBURG, PA
Time zone: UTC -4 (UTC -5 during Standard Time)
Zip code: 17824

Heliport Operations

Heliport use: Private use. Permission required prior to landing
Activation date: 01/1978
Control tower: no
ARTCC: NEW YORK CENTER
FSS: WILLIAMSPORT FLIGHT SERVICE STATION
Attendance: UNATNDD
Wind indicator: yes
Segmented circle: yes

Heliport Communications

WX AWOS-3 at N79 (0.2 nm NW): 119.175 (570-672-0389)
WX AWOS-3 at 79PN (8 nm N): 118.075 (570-271-8192)
WX AWOS-3 at ZER (11 nm SE): 127.575 (570-544-2778)
WX ASOS at SEG (14 nm W): 123.975 (570-374-4099)

Nearby radio navigation aids

VOR radial/distance  VOR name  Freq  Var
MIPr164/12.5MILTON VORTAC109.2009W
SEGr088/15.4SELINSGROVE VOR/DME110.4008W
RAVr019/17.0RAVINE VORTAC114.6011W
FQMr170/32.0WILLIAMSPORT VOR/DME114.4009W
HARr047/39.7HARRISBURG VORTAC112.5010W

 
NDB name  Hdg/Dist  Freq  Var  ID
BELLGROVE010/23.932810WBZJ -... --.. .---

Heliport Services

Runway Information

Helipad H1

Dimensions: 50 x 50 ft. / 15 x 15 m
Surface: concrete, in fair condition
Latitude: 40-50.005150N
Longitude: 076-32.980717W
Elevation: 1000.0 ft.
Traffic pattern: leftleft
Markings: none, in fair condition

Heliport Ownership and Management from official FAA records

Ownership: Privately-owned
Owner: EDWARD W. HELFRICK
459 YUCHA RD
ELYSBURG, PA 17824
Phone 717-672-2962

Heliport Operational Statistics

Aircraft based on the field: 1
Helicopters: 1
    

Additional Remarks

FOR CD CTC HARRISBURG APCH AT 800-932-0712.

Instrument Procedures

There are no published instrument procedures at 8PN5.

Some nearby airports with instrument procedures:

N79 - Northumberland County Airport (0 nm NW)
8N8 - Danville Airport (8 nm NW)
KZER - Schuylkill County/Joe Zerbey Airport (11 nm SE)
N13 - Bloomsburg Municipal Airport (11 nm NE)
KSEG - Penn Valley Airport (14 nm W)
74N - Bendigo Airport (16 nm S)
 
Loc | Ops | Rwys | IFR | FBO | Links
Com | Nav | Svcs | Stats | Notes
Area around 8PN5 (Helfrick Heliport)
 
Road maps at: MapQuest Bing Google
 
Aerial photo
No photo
 
Sectional chart

 
Airport distance calculator
Flying to Helfrick Heliport? Find the distance to fly.

From to 8PN5

Sunrise and sunset
Times for 02-Jul-2020
 Local
(UTC-4)
 Zulu
(UTC)
Morning civil twilight05:0709:07
Sunrise05:4009:40
Sunset20:4000:40
Evening civil twilight21:1401:14

Current date and time
Zulu (UTC)  02-Jul-2020 23:31:50
Local (UTC-4)  02-Jul-2020 19:31:50
 
METAR
KSEG 
14nm W 
022253Z AUTO 31003KT 10SM FEW120 32/17 A2985 RMK AO2 SLP102 T03220167
KMUI 
25nm S 
022256Z 27006KT 10SM FEW070 FEW110 32/17 A2985 RMK AO2A SLP107 T03220165
KHZL 
27nm E 
022316Z AUTO 00000KT SCT070 27/14 A2994 RMK AO2 PWINO
TAF
KMUI 
25nm S 
021909Z 0219/0401 34009KT 9999 SCT060 QNH2986INS BECMG 0314/0315 33009KT 9999 FEW085 QNH2984INS BECMG 0400/0401 35006KT 9999 SCT050 BKN065 QNH2985INS TX31/0319Z TN21/0310Z LAST NO AMDS AFT 0305 NEXT 0611
KIPT 
30nm NW 
022116Z 0221/0318 30006KT P6SM SCT080 FM030100 00000KT P6SM SKC FM031500 31006KT P6SM SCT050
NOTAMs
Click for the latest NOTAMs
NOTAMs are issued by the DoD/FAA and will open in a separate window not controlled by AirNav.

 

 
 

Would you like to see your business listed on this page?

 If your business provides an interesting product or service to pilots, flight crews, aircraft, or users of the Helfrick Heliport, you should consider listing it here.  To start the listing process, click on the button below
 
Add a business
 

Other Pages about Helfrick Heliport

Update a link
 
Copyright © AirNav, LLC. All rights reserved. Privacy Policy  Contact